Location: Branche des Alpilles
(43.6087°N, 4.6976°E)
Time: 20:44:31
(UTC+00:00)

USA 215 - Visible Passes

Search period start: 13 April 2021 00:00
Search period end: 23 April 2021 00:00
Orbit: 1102 x 1105 km, 123.0° (Epoch: 11 April)

Date Brightness Start Highest point End Pass type
(mag) Time Alt. Az. Time Alt. Az. Time Alt. Az.
13 Apr 3.8 19:06:49 10° E 19:13:03 49° NNE 19:19:19 10° NW visible
13 Apr 3.4 20:54:01 44° S 20:55:57 61° SW 21:02:27 10° NW visible
13 Apr 5.3 22:41:21 13° WSW 22:41:21 13° WSW 22:43:08 10° W visible
14 Apr 3.2 20:09:26 28° ESE 20:13:09 79° NE 20:19:43 10° NW visible
14 Apr 4.3 21:56:47 31° WSW 21:56:47 31° WSW 22:02:15 10° WNW visible
15 Apr 3.8 19:24:51 12° E 19:30:36 50° NNE 19:36:52 10° NW visible
15 Apr 3.4 21:12:11 51° S 21:13:31 60° SW 21:19:59 10° NW visible
15 Apr 5.4 22:59:31 12° W 22:59:31 12° W 23:00:39 10° W visible
16 Apr 3.2 20:27:34 34° ESE 20:30:42 79° NE 20:37:17 10° NW visible
16 Apr 4.4 22:14:54 30° WSW 22:14:54 30° WSW 22:19:48 10° WNW visible
17 Apr 3.8 19:42:57 15° E 19:48:09 50° NNE 19:54:25 10° NW visible
17 Apr 3.3 21:30:17 56° SSW 21:31:04 60° SW 21:37:32 10° NW visible
17 Apr 5.4 23:17:37 11° W 23:17:37 11° W 23:18:10 10° W visible
18 Apr 4.3 18:59:59 10° E 19:05:48 35° NNE 19:11:36 10° NW visible
18 Apr 3.2 20:45:38 40° ESE 20:48:16 79° NE 20:54:50 10° NW visible
18 Apr 4.5 22:32:58 29° WSW 22:32:58 29° WSW 22:37:21 10° WNW visible
19 Apr 3.8 20:00:59 18° E 20:05:42 50° NNE 20:11:58 10° NW visible
19 Apr 3.3 21:48:19 59° SSW 21:48:38 60° SW 21:55:06 10° NW visible
19 Apr 5.5 23:35:39 10° W 23:35:39 10° W 23:35:41 10° W visible
20 Apr 4.4 19:17:32 10° E 19:23:21 35° NNE 19:29:10 10° NW visible
20 Apr 3.2 21:03:38 46° ESE 21:05:49 80° NE 21:12:23 10° NW visible
20 Apr 4.6 22:50:58 27° W 22:50:58 27° W 22:54:54 10° WNW visible
21 Apr 3.8 20:18:57 21° E 20:23:15 50° NNE 20:29:32 10° NW visible
21 Apr 3.4 22:06:17 59° SW 22:06:17 59° SW 22:12:39 10° NW visible
22 Apr 4.4 19:35:05 10° E 19:40:54 36° NNE 19:46:43 10° NW visible
22 Apr 3.2 21:21:35 52° ESE 21:23:22 80° NE 21:29:56 10° NW visible
22 Apr 4.6 23:08:55 25° W 23:08:55 25° W 23:12:26 10° WNW visible
